Punta Gorda, FL

11:26 AM EDT on August 22, 2017 (GMT -0400)
Charlotte County

Weather History for KPGD - August, 2013

Change the Weather History Date:

Thursday, August 8, 2013

  Actual Average Record
Temperature  
Mean Temperature 84 °F -  
Max Temperature 93 °F 88 °F 95 °F (2012)
Min Temperature 75 °F 72 °F 71 °F (2002)
Cooling Degree Days 19    
Growing Degree Days 34 (Base 50)    
Moisture  
Dew Point 74 °F    
Average Humidity 80    
Maximum Humidity 96    
Minimum Humidity 49    
Precipitation  
Precipitation 0.36 in - - ()
Sea Level Pressure  
Sea Level Pressure 29.99 in    
Wind  
Wind Speed 7 mph (ESE)    
Max Wind Speed 18 mph    
Max Gust Speed 30 mph    
Visibility 9 miles    
Events Rain , Thunderstorm    
Averages and records for this station are not official NWS values.
T = Trace of Precipitation, MM = Missing Value Source: NWS Daily Summary

Daily Weather History Graph

Daily Weather History Graph

Search for Another Location

Airport or City:

Trip Planner

Search our weather history database for the weather conditions in past years. The results will help you decide how hot, cold, wet, or windy it might be!

Date:

Astronomy

Aug. 08, 2013 Rise Set
Actual Time 6:56 AM EDT 8:10 PM EDT
Civil Twilight 6:31 AM EDT 8:35 PM EDT
Nautical Twilight 6:02 AM EDT 9:04 PM EDT
Astronomical Twilight 5:31 AM EDT 9:34 PM EDT
Moon 8:26 AM EDT (8/8) 9:06 PM EDT (8/8)
Length of Visible Light 14h 03m
Length of Day
13h 14m
Waxing Crescent, 3% of the Moon is Illuminated
Aug 8
Waxing Crescent
Aug 14
First Quarter
Aug 20
Full
Aug 28
Last Quarter
Sep 5
New

Hourly Weather History & Observations

Time (EDT) Temp. Heat Index Dew Point Humidity Pressure Visibility Wind Dir Wind Speed Gust Speed Precip Events Conditions
12:53 AM 77.0 °F - 75.9 °F 96% 29.99 in 10.0 mi East 4.6 mph - N/A   Clear
1:53 AM 77.0 °F - 75.9 °F 96% 29.98 in 10.0 mi East 4.6 mph - N/A   Clear
2:53 AM 77.0 °F - 75.9 °F 96% 29.97 in 10.0 mi East 4.6 mph - N/A   Partly Cloudy
3:53 AM 77.0 °F - 75.0 °F 94% 29.96 in 10.0 mi East 5.8 mph - N/A   Clear
4:53 AM 77.0 °F - 75.0 °F 94% 29.96 in 10.0 mi East 3.5 mph - N/A   Clear
5:53 AM 77.0 °F - 75.0 °F 94% 29.96 in 10.0 mi East 4.6 mph - N/A   Clear
6:53 AM 77.0 °F - 75.0 °F 94% 29.97 in 10.0 mi East 5.8 mph - N/A   Clear
7:53 AM 78.1 °F - 75.9 °F 93% 29.98 in 10.0 mi East 4.6 mph - N/A   Clear
8:53 AM 82.0 °F 89.4 °F 75.9 °F 82% 29.99 in 10.0 mi ESE 9.2 mph - N/A   Clear
9:53 AM 84.9 °F 93.3 °F 75.0 °F 72% 29.99 in 10.0 mi SE 12.7 mph - N/A   Clear
10:53 AM 87.1 °F 96.3 °F 75.0 °F 67% 30.01 in 10.0 mi ESE 12.7 mph 19.6 mph N/A   Scattered Clouds
11:16 AM 87.8 °F 97.6 °F 75.2 °F 66% 30.01 in 10.0 mi SSE 12.7 mph - N/A   Mostly Cloudy
11:24 AM 87.8 °F 97.6 °F 75.2 °F 66% 30.01 in 10.0 mi SE 10.4 mph - N/A   Scattered Clouds
11:53 AM 89.1 °F 98.0 °F 73.9 °F 61% 30.01 in 10.0 mi ESE 12.7 mph - N/A   Partly Cloudy
12:53 PM 90.0 °F 97.9 °F 73.0 °F 57% 30.01 in 10.0 mi ESE 9.2 mph - N/A   Partly Cloudy
1:53 PM 91.0 °F 97.6 °F 71.1 °F 52% 30.00 in 10.0 mi SE 8.1 mph - N/A   Partly Cloudy
2:53 PM 93.0 °F 100.1 °F 71.1 °F 49% 29.98 in 10.0 mi Variable 4.6 mph - N/A   Mostly Cloudy
3:53 PM 79.0 °F - 73.0 °F 82% 29.99 in 2.0 mi East 18.4 mph 29.9 mph 0.05 in Rain Heavy Rain
4:00 PM 78.8 °F - 73.4 °F 83% 29.98 in 1.2 mi NE 16.1 mph 29.9 mph 0.08 in Rain Heavy Rain
4:07 PM 77.0 °F - 73.4 °F 89% 29.97 in 1.8 mi North 4.6 mph 23.0 mph 0.16 in Rain Rain
4:09 PM 77.0 °F - 73.4 °F 89% 29.97 in 2.0 mi NNW 5.8 mph - 0.18 in Rain Light Rain
4:17 PM 78.8 °F - 71.6 °F 78% 29.97 in 10.0 mi Calm Calm - 0.23 in Rain Light Rain
4:29 PM 82.4 °F 88.2 °F 73.4 °F 74% 29.97 in 10.0 mi Calm Calm - 0.26 in   Scattered Clouds
4:53 PM 86.0 °F 93.0 °F 73.0 °F 65% 29.97 in 10.0 mi SE 3.5 mph - 0.26 in   Scattered Clouds
5:53 PM 86.0 °F 95.1 °F 75.0 °F 70% 29.97 in 10.0 mi West 4.6 mph - N/A   Clear
6:53 PM 84.0 °F 90.2 °F 73.0 °F 69% 29.97 in 10.0 mi WSW 13.8 mph 21.9 mph N/A   Scattered Clouds
7:28 PM 82.4 °F 88.2 °F 73.4 °F 74% 29.97 in 10.0 mi West 5.8 mph - N/A Thunderstorm Clear
7:42 PM 82.4 °F 88.2 °F 73.4 °F 74% 29.99 in 10.0 mi SSE 15.0 mph 23.0 mph N/A Thunderstorm Partly Cloudy
7:53 PM 77.0 °F - 73.0 °F 88% 30.00 in 3.0 mi SSE 9.2 mph 25.3 mph 0.03 in Rain , Thunderstorm Rain
7:59 PM 75.2 °F - 71.6 °F 89% 30.00 in 2.5 mi South 12.7 mph 19.6 mph 0.02 in Rain , Thunderstorm Light Rain
8:07 PM 77.0 °F - 69.8 °F 78% 29.99 in 8.0 mi SW 8.1 mph - 0.02 in Rain , Thunderstorm Light Rain
8:20 PM 77.0 °F - 71.6 °F 83% 30.00 in 10.0 mi North 6.9 mph - 0.02 in Rain Light Rain
8:53 PM 75.9 °F - 73.0 °F 91% 30.00 in 10.0 mi Calm Calm - 0.02 in   Mostly Cloudy
9:53 PM 77.0 °F - 75.0 °F 94% 30.03 in 10.0 mi Calm Calm - N/A   Clear
10:53 PM 77.0 °F - 75.0 °F 94% 30.04 in 10.0 mi Calm Calm - N/A   Clear
11:53 PM 77.0 °F - 75.0 °F 94% 30.05 in 10.0 mi East 3.5 mph - N/A   Clear